�������l�o���
Date,Time,MP-1(��Sv/h),MP-2(��Sv/h),MP-3(��Sv/h),MP-4(��Sv/h),MP-5(��Sv/h),MP-6(��Sv/h),MP-7(��Sv/h),MP-8(��Sv/h),����,����(m/s),���J
2021/07/20,00:00,0.626,0.935,0.596,1.128,0.818,0.377,0.647,0.602,�k,3.5,��
2021/07/20,00:10,0.625,0.935,0.594,1.128,0.817,0.375,0.647,0.601,�k�k��,2.3,��
2021/07/20,00:20,0.627,0.937,0.594,1.132,0.817,0.374,0.647,0.602,�k,2.3,��
2021/07/20,00:30,0.625,0.938,0.596,1.129,0.817,0.375,0.646,0.602,�k,3.1,��
2021/07/20,00:40,0.626,0.938,0.596,1.130,0.818,0.375,0.647,0.602,�k,2.3,��
2021/07/20,00:50,0.627,0.936,0.595,1.127,0.817,0.375,0.648,0.603,-,CALM,��
2021/07/20,01:00,0.627,0.936,0.595,1.130,0.820,0.376,0.648,0.603,�k�k��,1.2,��
2021/07/20,01:10,0.625,0.937,0.596,1.129,0.816,0.375,0.648,0.603,�k,3.0,��
2021/07/20,01:20,0.629,0.937,0.596,1.131,0.818,0.377,0.648,0.604,�k�k��,2.8,��
2021/07/20,01:30,0.626,0.934,0.596,1.131,0.816,0.377,0.647,0.603,�k,2.3,��
2021/07/20,01:40,0.627,0.936,0.595,1.132,0.817,0.376,0.646,0.605,�k,2.2,��
2021/07/20,01:50,0.625,0.938,0.596,1.131,0.817,0.377,0.647,0.602,�k�k��,2.6,��
2021/07/20,02:00,0.627,0.937,0.598,1.131,0.818,0.377,0.647,0.603,�k��,2.0,��
2021/07/20,02:10,0.624,0.937,0.596,1.132,0.818,0.377,0.646,0.602,�k��,2.3,��
2021/07/20,02:20,0.627,0.937,0.596,1.131,0.817,0.376,0.648,0.603,�k��,3.0,��
2021/07/20,02:30,0.625,0.935,0.596,1.129,0.817,0.377,0.646,0.603,�k��,2.3,��
2021/07/20,02:40,0.624,0.937,0.596,1.130,0.818,0.376,0.648,0.602,�k��,2.9,��
2021/07/20,02:50,0.625,0.937,0.596,1.129,0.819,0.375,0.646,0.601,�k��,3.0,��
2021/07/20,03:00,0.625,0.938,0.595,1.130,0.817,0.376,0.646,0.603,�k��,2.9,��
2021/07/20,03:10,0.627,0.936,0.597,1.132,0.817,0.376,0.647,0.602,�k��,2.6,��
2021/07/20,03:20,0.627,0.937,0.595,1.131,0.817,0.376,0.646,0.603,�k��,2.3,��
2021/07/20,03:30,0.624,0.936,0.596,1.130,0.818,0.376,0.646,0.601,�k��,1.7,��
2021/07/20,03:40,0.625,0.936,0.595,1.131,0.817,0.377,0.646,0.603,���k��,1.2,��
2021/07/20,03:50,0.624,0.937,0.597,1.133,0.816,0.375,0.648,0.603,�쐼,1.2,��
2021/07/20,04:00,0.625,0.936,0.596,1.131,0.818,0.376,0.646,0.603,��쐼,0.9,��
2021/07/20,04:10,0.624,0.937,0.595,1.130,0.816,0.374,0.646,0.602,��쐼,0.9,��
2021/07/20,04:20,0.625,0.940,0.597,1.132,0.815,0.375,0.647,0.603,��,1.2,��
2021/07/20,04:30,0.624,0.937,0.595,1.131,0.817,0.377,0.646,0.603,��,0.8,��
2021/07/20,04:40,0.626,0.938,0.596,1.133,0.816,0.376,0.647,0.602,�쓌,0.9,��
2021/07/20,04:50,0.626,0.936,0.594,1.130,0.818,0.376,0.646,0.603,��쓌,0.6,��
2021/07/20,05:00,0.624,0.938,0.596,1.130,0.818,0.376,0.647,0.604,�k��,0.6,��
2021/07/20,05:10,0.624,0.939,0.595,1.130,0.817,0.377,0.646,0.604,-,CALM,��
2021/07/20,05:20,0.624,0.938,0.596,1.130,0.815,0.377,0.648,0.604,-,CALM,��
2021/07/20,05:30,0.626,0.937,0.596,1.132,0.818,0.376,0.647,0.602,��쐼,0.6,��
2021/07/20,05:40,0.625,0.937,0.595,1.133,0.817,0.376,0.646,0.602,-,CALM,��
2021/07/20,05:50,0.625,0.936,0.595,1.130,0.818,0.376,0.647,0.604,-,CALM,��
2021/07/20,06:00,0.625,0.937,0.596,1.130,0.817,0.376,0.646,0.604,-,CALM,��
2021/07/20,06:10,0.624,0.939,0.594,1.132,0.817,0.375,0.646,0.603,�쐼,0.6,��
2021/07/20,06:20,0.625,0.938,0.595,1.134,0.816,0.376,0.647,0.604,-,CALM,��
2021/07/20,06:30,0.624,0.939,0.596,1.131,0.817,0.377,0.646,0.602,��쐼,0.8,��
2021/07/20,06:40,0.625,0.937,0.594,1.131,0.816,0.375,0.646,0.604,��쓌,1.1,��
2021/07/20,06:50,0.626,0.936,0.595,1.129,0.817,0.374,0.647,0.601,-,CALM,��
2021/07/20,07:00,0.625,0.938,0.593,1.130,0.815,0.374,0.649,0.603,-,CALM,��
2021/07/20,07:10,0.627,0.937,0.595,1.129,0.817,0.375,0.646,0.603,-,CALM,��
2021/07/20,07:20,0.625,0.938,0.594,1.129,0.813,0.375,0.648,0.603,-,CALM,��
2021/07/20,07:30,0.625,0.935,0.594,1.129,0.815,0.375,0.645,0.605,�k��,1.1,��
2021/07/20,07:40,0.626,0.939,0.592,1.131,0.816,0.375,0.647,0.604,�k��,0.6,��
2021/07/20,07:50,0.624,0.937,0.592,1.130,0.816,0.376,0.647,0.603,�k,0.9,��
2021/07/20,08:00,0.623,0.936,0.596,1.131,0.817,0.375,0.646,0.601,�k�k��,1.4,��
2021/07/20,08:10,0.624,0.936,0.593,1.130,0.816,0.374,0.645,0.602,�k�k��,1.9,��
2021/07/20,08:20,0.625,0.936,0.593,1.130,0.815,0.376,0.645,0.601,�k��,1.7,��
2021/07/20,08:30,0.624,0.935,0.593,1.129,0.816,0.376,0.644,0.601,�k�k��,0.9,��
2021/07/20,08:40,0.623,0.936,0.591,1.127,0.816,0.376,0.646,0.602,�k��,1.7,��
2021/07/20,08:50,0.624,0.934,0.588,1.133,0.814,0.374,0.646,0.600,�k��,2.0,��
2021/07/20,09:00,0.625,0.933,0.591,1.129,0.815,0.375,0.648,0.600,�k��,1.7,��
2021/07/20,09:10,0.624,0.933,0.593,1.130,0.815,0.373,0.645,0.601,���k��,1.7,��
2021/07/20,09:20,0.622,0.933,0.590,1.128,0.815,0.374,0.649,0.602,��,1.7,��
2021/07/20,09:30,0.623,0.932,0.591,1.129,0.814,0.373,0.648,0.601,���쓌,2.0,��
2021/07/20,09:40,0.624,0.933,0.591,1.130,0.816,0.372,0.647,0.600,���쓌,2.3,��
2021/07/20,09:50,0.623,0.932,0.594,1.130,0.815,0.374,0.647,0.602,���쓌,2.6,��
2021/07/20,10:00,0.623,0.932,0.591,1.130,0.814,0.372,0.647,0.601,���쓌,2.3,��
2021/07/20,10:10,0.622,0.932,0.591,1.130,0.815,0.373,0.647,0.600,���쓌,2.8,��
2021/07/20,10:20,0.623,0.931,0.591,1.130,0.816,0.374,0.646,0.601,���쓌,2.0,��
2021/07/20,10:30,0.624,0.930,0.591,1.131,0.817,0.372,0.646,0.600,���쓌,1.7,��
2021/07/20,10:40,0.624,0.928,0.592,1.130,0.818,0.373,0.645,0.602,���쓌,1.5,��
2021/07/20,10:50,0.623,0.932,0.592,1.130,0.815,0.372,0.645,0.601,���쓌,1.9,��
2021/07/20,11:00,0.622,0.927,0.593,1.130,0.817,0.373,0.646,0.601,�쓌,2.3,��
2021/07/20,11:10,0.623,0.932,0.592,1.132,0.815,0.375,0.646,0.601,���쓌,3.0,��
2021/07/20,11:20,0.623,0.935,0.592,1.130,0.817,0.373,0.646,0.602,�쓌,2.8,��
2021/07/20,11:30,0.622,0.933,0.592,1.129,0.817,0.374,0.646,0.603,�쓌,2.9,��
2021/07/20,11:40,0.624,0.936,0.588,1.129,0.819,0.373,0.645,0.601,���쓌,1.7,��
2021/07/20,11:50,0.626,0.936,0.588,1.129,0.817,0.373,0.646,0.601,�쓌,2.3,��
2021/07/20,12:00,0.624,0.937,0.593,1.129,0.819,0.373,0.646,0.600,�쓌,2.0,��
2021/07/20,12:10,0.625,0.935,0.593,1.128,0.819,0.373,0.647,0.600,�쓌,2.8,��
2021/07/20,12:20,0.627,0.938,0.594,1.129,0.818,0.373,0.646,0.601,�쓌,2.0,��
2021/07/20,12:30,0.625,0.935,0.593,1.129,0.818,0.373,0.646,0.602,�쓌,2.2,��
2021/07/20,12:40,0.625,0.937,0.596,1.129,0.820,0.373,0.646,0.602,�쓌,2.6,��
2021/07/20,12:50,0.624,0.937,0.594,1.128,0.818,0.374,0.647,0.601,�쓌,2.3,��
2021/07/20,13:00,0.624,0.933,0.594,1.130,0.820,0.374,0.647,0.601,�쓌,2.6,��
2021/07/20,13:10,0.625,0.936,0.596,1.131,0.820,0.374,0.646,0.602,���쓌,2.9,��
2021/07/20,13:20,0.625,0.935,0.594,1.128,0.817,0.373,0.646,0.601,�쓌,2.8,��
2021/07/20,13:30,0.626,0.934,0.594,1.130,0.820,0.374,0.646,0.602,���쓌,2.5,��
2021/07/20,13:40,0.626,0.933,0.597,1.130,0.820,0.375,0.647,0.602,�쓌,2.5,��
2021/07/20,13:50,0.627,0.936,0.593,1.129,0.817,0.373,0.644,0.601,�쓌,2.6,��
2021/07/20,14:00,0.624,0.935,0.593,1.131,0.818,0.373,0.646,0.601,�쓌,2.5,��
2021/07/20,14:10,0.625,0.938,0.595,1.132,0.819,0.373,0.647,0.602,��쓌,3.5,��
2021/07/20,14:20,0.627,0.934,0.593,1.131,0.821,0.374,0.645,0.602,��쓌,4.3,��
2021/07/20,14:30,0.625,0.936,0.594,1.131,0.818,0.372,0.646,0.602,��쓌,5.3,��
2021/07/20,14:40,0.625,0.936,0.595,1.133,0.819,0.374,0.646,0.600,��쓌,6.7,��
2021/07/20,14:50,0.625,0.935,0.595,1.131,0.820,0.374,0.647,0.601,��,7.0,��
2021/07/20,15:00,0.625,0.935,0.595,1.130,0.819,0.374,0.647,0.600,��,6.0,��
2021/07/20,15:10,0.626,0.934,0.595,1.133,0.820,0.374,0.645,0.603,��,6.7,��
2021/07/20,15:20,0.626,0.936,0.594,1.133,0.820,0.373,0.648,0.602,��,7.1,��
2021/07/20,15:30,0.626,0.937,0.594,1.130,0.819,0.373,0.648,0.600,��쓌,9.1,��
2021/07/20,15:40,0.624,0.935,0.592,1.134,0.821,0.373,0.646,0.603,��,7.1,��
2021/07/20,15:50,0.625,0.938,0.594,1.131,0.820,0.374,0.647,0.600,��쓌,7.6,��
2021/07/20,16:00,0.625,0.936,0.593,1.132,0.818,0.374,0.647,0.603,��,7.6,��
2021/07/20,16:10,0.625,0.936,0.595,1.131,0.819,0.373,0.646,0.601,��,8.4,��
2021/07/20,16:20,0.625,0.935,0.595,1.131,0.820,0.373,0.646,0.602,��,7.5,��
2021/07/20,16:30,0.625,0.935,0.594,1.133,0.819,0.372,0.648,0.603,��쓌,7.2,��
2021/07/20,16:40,0.625,0.938,0.593,1.132,0.820,0.373,0.646,0.599,��,5.8,��
2021/07/20,16:50,0.625,0.936,0.595,1.134,0.820,0.374,0.646,0.600,��,5.2,��
2021/07/20,17:00,0.626,0.936,0.595,1.133,0.820,0.373,0.647,0.601,��,6.6,��
2021/07/20,17:10,0.625,0.937,0.593,1.133,0.819,0.373,0.645,0.602,��,5.7,��
2021/07/20,17:20,0.626,0.935,0.595,1.134,0.819,0.374,0.647,0.600,��,6.1,��
2021/07/20,17:30,0.626,0.934,0.595,1.134,0.819,0.374,0.646,0.600,��,6.6,��
2021/07/20,17:40,0.625,0.936,0.595,1.135,0.818,0.374,0.646,0.601,��,6.3,��
2021/07/20,17:50,0.624,0.935,0.595,1.132,0.818,0.372,0.645,0.600,��쐼,5.7,��
2021/07/20,18:00,0.626,0.934,0.595,1.130,0.818,0.373,0.645,0.602,��쐼,3.8,��
2021/07/20,18:10,0.624,0.935,0.594,1.131,0.819,0.374,0.645,0.602,��,3.3,��
2021/07/20,18:20,0.624,0.936,0.594,1.133,0.819,0.374,0.646,0.600,��,3.8,��
2021/07/20,18:30,0.624,0.936,0.596,1.131,0.821,0.375,0.646,0.602,��,4.2,��
2021/07/20,18:40,0.625,0.938,0.595,1.134,0.821,0.375,0.648,0.602,��,4.8,��
2021/07/20,18:50,0.625,0.934,0.595,1.130,0.821,0.374,0.645,0.603,��,4.9,��
2021/07/20,19:00,0.626,0.938,0.596,1.133,0.821,0.375,0.646,0.602,��,4.1,��
2021/07/20,19:10,0.625,0.937,0.598,1.134,0.822,0.375,0.646,0.601,��,5.1,��
2021/07/20,19:20,0.627,0.938,0.596,1.134,0.823,0.374,0.645,0.601,��쐼,4.6,��
2021/07/20,19:30,0.627,0.938,0.598,1.134,0.822,0.375,0.646,0.602,��쐼,3.7,��
2021/07/20,19:40,0.627,0.940,0.599,1.135,0.822,0.377,0.645,0.602,�쐼,2.9,��
2021/07/20,19:50,0.627,0.937,0.597,1.133,0.821,0.374,0.647,0.603,�쐼,2.6,��
2021/07/20,20:00,0.627,0.939,0.596,1.133,0.822,0.375,0.648,0.602,��쐼,3.1,��
2021/07/20,20:10,0.627,0.939,0.598,1.133,0.819,0.377,0.647,0.602,�쐼,2.9,��
2021/07/20,20:20,0.626,0.938,0.599,1.134,0.822,0.374,0.648,0.601,��쐼,2.0,��
2021/07/20,20:30,0.626,0.937,0.600,1.136,0.821,0.376,0.647,0.601,��쐼,2.3,��
2021/07/20,20:40,0.627,0.939,0.598,1.135,0.821,0.376,0.647,0.602,��쐼,2.3,��
2021/07/20,20:50,0.629,0.938,0.598,1.133,0.821,0.377,0.646,0.603,��쐼,3.1,��
2021/07/20,21:00,0.628,0.940,0.598,1.135,0.821,0.377,0.647,0.603,��쐼,2.3,��
2021/07/20,21:10,0.627,0.941,0.598,1.133,0.823,0.375,0.647,0.604,��,3.1,��
2021/07/20,21:20,0.629,0.941,0.597,1.133,0.822,0.377,0.647,0.602,��,2.9,��
2021/07/20,21:30,0.627,0.939,0.597,1.136,0.822,0.374,0.647,0.605,��,3.3,��
2021/07/20,21:40,0.627,0.937,0.599,1.135,0.822,0.376,0.648,0.604,��,3.4,��
2021/07/20,21:50,0.628,0.940,0.599,1.134,0.823,0.376,0.645,0.603,��,2.8,��
2021/07/20,22:00,0.629,0.940,0.598,1.134,0.820,0.375,0.647,0.603,��,4.1,��
2021/07/20,22:10,0.629,0.935,0.596,1.133,0.821,0.376,0.648,0.603,��,3.4,��
2021/07/20,22:20,0.627,0.936,0.598,1.133,0.823,0.375,0.647,0.602,��,3.7,��
2021/07/20,22:30,0.628,0.938,0.598,1.134,0.822,0.376,0.647,0.605,��쐼,3.2,��
2021/07/20,22:40,0.626,0.938,0.597,1.133,0.822,0.376,0.648,0.604,��쐼,2.0,��
2021/07/20,22:50,0.629,0.939,0.598,1.135,0.821,0.374,0.649,0.603,-,CALM,��
2021/07/20,23:00,0.629,0.939,0.597,1.133,0.820,0.377,0.648,0.603,�k�k��,0.6,��
2021/07/20,23:10,0.628,0.940,0.597,1.134,0.822,0.376,0.647,0.603,�k�k��,0.9,��
2021/07/20,23:20,0.629,0.942,0.598,1.133,0.822,0.375,0.645,0.605,�k,1.5,��
2021/07/20,23:30,0.630,0.940,0.599,1.135,0.822,0.375,0.647,0.603,�k,2.6,��
2021/07/20,23:40,0.629,0.939,0.597,1.134,0.823,0.376,0.649,0.603,�k�k��,3.1,��
2021/07/20,23:50,0.628,0.940,0.597,1.136,0.823,0.377,0.647,0.604,�k��,2.6,��
